Weather History for Barcelona / Aeropuerto, Spain

Change the Weather History Date:

Monday, November 11, 2013

  Actual Average Record
Temperature  
Mean Temperature 58 °F -  
Max Temperature 66 °F 58 °F - ()
Min Temperature 51 °F 45 °F - ()
Degree Days  
Heating Degree Days 6    
Growing Degree Days 8 (Base 50)    
Moisture  
Dew Point 50 °F    
Average Humidity 70    
Maximum Humidity 88    
Minimum Humidity 52    
Precipitation  
Precipitation 0.00 in 0.09 in - ()
Sea Level Pressure  
Sea Level Pressure 30.09 in    
Wind  
Wind Speed 6 mph ()    
Max Wind Speed 13 mph    
Max Gust Speed 17 mph    
Visibility 7.0 miles    
Events      
T = Trace of Precipitation, MM = Missing Value Source: Averaged Metar Reports

Daily Weather History Graph

Daily Weather History Graph

Search for Another Location

Airport:

Trip Planner

Search our weather history database for the weather conditions in past years. The results will help you decide how hot, cold, wet, or windy it might be!

Date:

Astronomy

Nov. 11, 2013 Rise Set
Actual Time 7:35 AM CET 5:35 PM CET
Civil Twilight 7:05 AM CET 6:05 PM CET
Nautical Twilight 6:32 AM CET 6:38 PM CET
Astronomical Twilight 6:00 AM CET 7:10 PM CET
Moon 2:11 PM CET (11/11) 12:59 AM CET (11/11)
Length of Visible Light 10h 59m
Length of Day
10h 00m
Waxing Gibbous, 63% of the Moon is Illuminated
Nov 11
Waxing Gibbous
Nov 17
Full
Nov 25
Last Quarter
Dec 3
New
Dec 9
First Quarter

Hourly Weather History & Observations

Time (CET) Temp. Dew Point Humidity Pressure Visibility Wind Dir Wind Speed Gust Speed Precip Events Conditions
12:00 AM 62.6 °F 44.6 °F 52% 30.06 in 6.2 mi NW 12.7 mph - N/A   Partly Cloudy
12:30 AM 62.6 °F 44.6 °F 52% 30.06 in 6.2 mi NW 11.5 mph - N/A   Partly Cloudy
1:00 AM 61 °F 48 °F 53% 30.10 in 19 mi NW 6.9 mph - -   Scattered Clouds
1:00 AM 60.8 °F 46.4 °F 59% 30.09 in 6.2 mi NW 10.4 mph - N/A   Partly Cloudy
1:30 AM 60.8 °F 46.4 °F 59% 30.09 in 6.2 mi NNW 6.9 mph - N/A   Partly Cloudy
2:00 AM 60.8 °F 46.4 °F 59% 30.09 in 6.2 mi NNE 8.1 mph - N/A   Partly Cloudy
2:30 AM 59.0 °F 50.0 °F 72% 30.09 in 6.2 mi NNE 5.8 mph - N/A   Partly Cloudy
3:00 AM 59.0 °F 51.8 °F 77% 30.09 in 6.2 mi East 3.5 mph - N/A   Partly Cloudy
3:30 AM 59.0 °F 50.0 °F 72% 30.09 in 6.2 mi SE 5.8 mph - N/A   Partly Cloudy
4:00 AM 59.0 °F 50.0 °F 72% 30.06 in 6.2 mi ESE 6.9 mph - N/A   Partly Cloudy
4:30 AM 59.0 °F 50.0 °F 72% 30.06 in 6.2 mi ESE 5.8 mph - N/A   Partly Cloudy
5:00 AM 55.4 °F 46.4 °F 72% 30.06 in 6.2 mi East 3.5 mph - N/A   Partly Cloudy
5:30 AM 53.6 °F 46.4 °F 77% 30.09 in 6.2 mi WNW 4.6 mph - N/A   Partly Cloudy
6:00 AM 53.6 °F 46.4 °F 77% 30.09 in 6.2 mi WNW 6.9 mph - N/A   Partly Cloudy
6:30 AM 53.6 °F 44.6 °F 72% 30.09 in 6.2 mi NNW 5.8 mph - N/A   Partly Cloudy
7:00 AM 53 °F 47 °F 75% 30.11 in 19 mi North 8.1 mph - -   Scattered Clouds
7:00 AM 51.8 °F 44.6 °F 76% 30.09 in 6.2 mi NW 4.6 mph - N/A   Partly Cloudy
7:30 AM 53.6 °F 46.4 °F 77% 30.09 in 6.2 mi NW 6.9 mph - N/A   Scattered Clouds
8:00 AM 53.6 °F 44.6 °F 72% 30.09 in 6.2 mi NW 6.9 mph - N/A   Scattered Clouds
8:30 AM 53.6 °F 46.4 °F 77% 30.09 in 6.2 mi NW 6.9 mph - N/A   Partly Cloudy
9:00 AM 55.4 °F 46.4 °F 72% 30.12 in 6.2 mi NNW 5.8 mph 17.3 mph N/A   Partly Cloudy
9:30 AM 57.2 °F 46.4 °F 67% 30.12 in 6.2 mi NNW 5.8 mph - N/A   Partly Cloudy
10:00 AM 60.8 °F 48.2 °F 63% 30.12 in 6.2 mi North 3.5 mph - N/A   Partly Cloudy
10:30 AM 62.6 °F 48.2 °F 59% 30.12 in 6.2 mi NE 3.5 mph - N/A   Partly Cloudy
11:00 AM 64.4 °F 50.0 °F 59% 30.12 in 6.2 mi East 5.8 mph - N/A   Partly Cloudy
11:30 AM 64.4 °F 50.0 °F 59% 30.12 in 6.2 mi East 3.5 mph - N/A   Partly Cloudy
12:00 PM 64.4 °F 50.0 °F 59% 30.09 in 6.2 mi SSW 2.3 mph - N/A   Partly Cloudy
12:30 PM 64.4 °F 50.0 °F 59% 30.09 in 6.2 mi South 6.9 mph - N/A   Partly Cloudy
1:00 PM 64 °F 54 °F 62% 30.09 in 19 mi SE 8.1 mph - -   Scattered Clouds
1:00 PM 62.6 °F 51.8 °F 68% 30.06 in 6.2 mi SE 6.9 mph - N/A   Partly Cloudy
1:30 PM 64.4 °F 50.0 °F 59% 30.06 in 6.2 mi SE 8.1 mph - N/A   Partly Cloudy
2:00 PM 64.4 °F 50.0 °F 59% 30.06 in 6.2 mi SE 8.1 mph - N/A   Partly Cloudy
2:30 PM 64.4 °F 51.8 °F 64% 30.06 in 6.2 mi SSE 8.1 mph - N/A   Partly Cloudy
3:00 PM 64.4 °F 51.8 °F 64% 30.06 in 6.2 mi SSE 6.9 mph - N/A   Partly Cloudy
3:30 PM 64.4 °F 53.6 °F 68% 30.04 in 6.2 mi SSE 8.1 mph - N/A   Partly Cloudy
4:00 PM 66.2 °F 53.6 °F 64% 30.04 in 6.2 mi SE 8.1 mph - N/A   Partly Cloudy
4:30 PM 64.4 °F 53.6 °F 68% 30.04 in 6.2 mi SSE 5.8 mph - N/A   Partly Cloudy
5:00 PM 64.4 °F 55.4 °F 73% 30.06 in 6.2 mi SSE 3.5 mph - N/A   Partly Cloudy
5:30 PM 64.4 °F 55.4 °F 73% 30.06 in 6.2 mi SSE 3.5 mph - N/A   Partly Cloudy
6:00 PM 64.4 °F 55.4 °F 73% 30.06 in 6.2 mi SSE 3.5 mph - N/A   Partly Cloudy
6:30 PM 64.4 °F 55.4 °F 73% 30.06 in 6.2 mi SSE 2.3 mph - N/A   Partly Cloudy
7:00 PM 63 °F 58 °F 77% 30.10 in 8 mi SSW 1.2 mph - -   Scattered Clouds
7:00 PM 62.6 °F 55.4 °F 77% 30.09 in 6.2 mi Variable 1.2 mph - N/A   Partly Cloudy
7:30 PM 60.8 °F 55.4 °F 82% 30.09 in 6.2 mi Calm Calm - N/A   Partly Cloudy
8:00 PM 59.0 °F 53.6 °F 82% 30.09 in 6.2 mi NW 4.6 mph - N/A   Partly Cloudy
8:30 PM 59.0 °F 53.6 °F 82% 30.09 in 6.2 mi NW 4.6 mph - N/A   Partly Cloudy
9:00 PM 59.0 °F 53.6 °F 82% 30.12 in 6.2 mi NW 4.6 mph - N/A   Partly Cloudy
9:30 PM 57.2 °F 51.8 °F 82% 30.12 in 6.2 mi NW 4.6 mph - N/A   Partly Cloudy
10:00 PM 57.2 °F 51.8 °F 82% 30.12 in 6.2 mi NW 8.1 mph - N/A   Partly Cloudy
10:30 PM 57.2 °F 53.6 °F 88% 30.12 in 6.2 mi NW 8.1 mph - N/A   Partly Cloudy
11:00 PM 57.2 °F 51.8 °F 82% 30.12 in 6.2 mi NW 8.1 mph - N/A   Partly Cloudy
11:30 PM 57.2 °F 51.8 °F 82% 30.12 in 6.2 mi NW 10.4 mph - N/A   Partly Cloudy